Akron, CO

12:44 PM MDT on March 27, 2017 (GMT -0600)
Akron-Washington County

Weather History for KAKO - January, 2013

Change the Weather History Date:

Tuesday, January 15, 2013

  Actual Average Record
Temperature  
Mean Temperature 12 °F 29 °F  
Max Temperature 27 °F 40 °F 65 °F (1995)
Min Temperature -3 °F 17 °F -10 °F (1972)
Degree Days  
Heating Degree Days 53    
Month to date heating degree days 650  
Cooling Degree Days 0    
Month to date cooling degree days 0  
Moisture  
Dew Point 7 °F    
Average Humidity 69    
Maximum Humidity 87    
Minimum Humidity 50    
Precipitation  
Precipitation T in 0.01 in 0.21 in (1953)
Month to date precipitation T 0.12  
Year to date precipitation T 0.12  
Sea Level Pressure  
Sea Level Pressure 30.25 in    
Wind  
Wind Speed 11 mph (West)    
Max Wind Speed 18 mph    
Max Gust Speed 22 mph    
Visibility 8 miles    
Events Snow    
T = Trace of Precipitation, MM = Missing Value Source: NWS Daily Summary

Daily Weather History Graph

Daily Weather History Graph

Search for Another Location

Airport or City:

Trip Planner

Search our weather history database for the weather conditions in past years. The results will help you decide how hot, cold, wet, or windy it might be!

Date:

Astronomy

Jan. 15, 2013 Rise Set
Actual Time 7:13 AM MST 4:52 PM MST
Civil Twilight 6:43 AM MST 5:21 PM MST
Nautical Twilight 6:09 AM MST 5:55 PM MST
Astronomical Twilight 5:37 AM MST 6:27 PM MST
Moon 9:19 AM MST (1/15) 9:44 PM MST (1/15)
Length of Visible Light 10h 38m
Length of Day
9h 38m
Waxing Crescent, 20% of the Moon is Illuminated
Jan 15
Waxing Crescent
Jan 18
First Quarter
Jan 26
Full
Feb 3
Last Quarter
Feb 10
New

Hourly Weather History & Observations

Time (MST) Temp. Windchill Dew Point Humidity Pressure Visibility Wind Dir Wind Speed Gust Speed Precip Events Conditions
12:53 AM 1.0 °F -14.9 °F -4.0 °F 79% 30.32 in 10.0 mi West 10.4 mph - N/A   Clear
1:53 AM -0.0 °F -16.3 °F -4.0 °F 83% 30.33 in 10.0 mi West 10.4 mph - N/A   Clear
2:53 AM -0.9 °F -15.3 °F -5.1 °F 83% 30.32 in 10.0 mi WSW 8.1 mph - N/A   Clear
3:53 AM -0.9 °F -16.4 °F -6.0 °F 79% 30.32 in 10.0 mi West 9.2 mph - N/A   Clear
4:53 AM -2.0 °F -13.9 °F -7.1 °F 79% 30.32 in 9.0 mi WSW 5.8 mph - N/A   Clear
5:53 AM -2.0 °F -21.9 °F -6.0 °F 83% 30.34 in 6.0 mi West 15.0 mph - N/A   Clear
6:53 AM -0.9 °F -20.6 °F -6.0 °F 79% 30.35 in 6.0 mi WSW 15.0 mph - N/A   Haze
7:53 AM -0.0 °F -19.4 °F -4.0 °F 83% 30.38 in 6.0 mi West 15.0 mph - N/A   Clear
8:53 AM 1.9 °F -16.2 °F -2.0 °F 83% 30.38 in 6.0 mi WSW 13.8 mph - N/A   Clear
9:53 AM 7.0 °F -10.4 °F 1.0 °F 77% 30.35 in 8.0 mi West 15.0 mph - N/A   Partly Cloudy
10:53 AM 9.0 °F -6.6 °F 1.9 °F 73% 30.35 in 10.0 mi West 12.7 mph - N/A   Overcast
11:53 AM 15.1 °F 1.1 °F 5.0 °F 64% 30.28 in 10.0 mi West 12.7 mph - N/A   Clear
12:35 PM 19.4 °F 7.9 °F 6.8 °F 58% 30.03 in 1.8 mi West 10.4 mph - N/A   Haze
12:49 PM 19.4 °F 8.6 °F 6.8 °F 58% 30.04 in 10.0 mi West 9.2 mph - N/A   Mostly Cloudy
12:53 PM 19.9 °F 7.9 °F 6.1 °F 55% 30.25 in 10.0 mi West 11.5 mph - N/A   Mostly Cloudy
1:53 PM 21.9 °F 9.8 °F 7.0 °F 53% 30.24 in 10.0 mi West 12.7 mph - N/A   Overcast
2:53 PM 24.1 °F 11.5 °F 8.1 °F 51% 30.24 in 10.0 mi West 15.0 mph - N/A   Overcast
3:53 PM 24.1 °F 14.4 °F 10.9 °F 57% 30.25 in 10.0 mi West 9.2 mph - N/A   Overcast
4:53 PM 23.0 °F 11.7 °F 10.9 °F 60% 30.26 in 10.0 mi West 11.5 mph - N/A   Overcast
5:53 PM 23.0 °F 11.1 °F 15.1 °F 72% 30.26 in 10.0 mi West 12.7 mph - N/A   Overcast
6:53 PM 25.0 °F 13.1 °F 14.0 °F 63% 30.25 in 10.0 mi West 13.8 mph - N/A   Overcast
7:53 PM 26.1 °F 14.5 °F 14.0 °F 60% 30.25 in 9.0 mi West 13.8 mph - 0.00 in Snow Light Snow
8:53 PM 26.1 °F 15.0 °F 16.0 °F 66% 30.25 in 6.0 mi WNW 12.7 mph - 0.00 in Snow Light Snow
8:59 PM 26.6 °F 14.7 °F 17.6 °F 69% 30.05 in 1.8 mi WNW 15.0 mph 21.9 mph 0.00 in Snow Light Snow
9:09 PM 24.8 °F 14.0 °F 19.4 °F 80% 30.05 in 3.0 mi WNW 11.5 mph - 0.00 in Snow Light Snow
9:29 PM 24.8 °F 14.6 °F 19.4 °F 80% 30.04 in 9.0 mi West 10.4 mph - 0.00 in   Overcast
9:53 PM 25.0 °F 13.6 °F 19.0 °F 78% 30.23 in 10.0 mi West 12.7 mph - 0.00 in   Overcast
10:53 PM 26.1 °F 15.6 °F 17.1 °F 69% 30.22 in 10.0 mi West 11.5 mph - N/A   Overcast
11:53 PM 27.0 °F 18.0 °F 18.0 °F 69% 30.20 in 10.0 mi West 9.2 mph - 0.00 in   Overcast